Time,TemperatureF,DewpointF,PressureIn,WindDirection,WindDirectionDegrees,WindSpeedMPH,WindSpeedGustMPH,Humidity,HourlyPrecipIn,Conditions,Clouds,dailyrainin,SoftwareType,DateUTC
2013-08-25 00:00:00,53.4,51.7,30.59,NE,42,1.0,1.0,94,0.00,,,0.00,Wunderground v.1.15,2013-08-25 04:00:00,
2013-08-25 00:05:00,53.3,51.6,30.59,NE,42,0.0,1.0,94,0.00,,,0.00,Wunderground v.1.15,2013-08-25 04:05:00,
2013-08-25 00:10:00,53.2,51.5,30.59,NE,42,0.0,0.0,94,0.00,,,0.00,Wunderground v.1.15,2013-08-25 04:10:00,
2013-08-25 00:15:00,53.3,51.6,30.59,NE,42,0.0,0.0,94,0.00,,,0.00,Wunderground v.1.15,2013-08-25 04:15:00,
2013-08-25 00:20:00,53.3,51.6,30.59,NE,42,0.0,0.0,94,0.00,,,0.00,Wunderground v.1.15,2013-08-25 04:20:00,
2013-08-25 00:25:00,53.3,51.6,30.59,NE,42,0.0,0.0,94,0.00,,,0.00,Wunderground v.1.15,2013-08-25 04:25:00,
2013-08-25 00:30:00,52.9,51.2,30.59,NE,42,0.0,0.0,94,0.00,,,0.00,Wunderground v.1.15,2013-08-25 04:30:00,
2013-08-25 00:35:00,52.5,50.8,30.59,NE,42,0.0,0.0,94,0.00,,,0.00,Wunderground v.1.15,2013-08-25 04:35:00,
2013-08-25 00:40:00,52.2,50.5,30.59,NE,43,0.0,2.0,94,0.00,,,0.00,Wunderground v.1.15,2013-08-25 04:40:00,
2013-08-25 00:45:00,52.2,50.8,30.59,NE,45,1.0,4.0,95,0.00,,,0.00,Wunderground v.1.15,2013-08-25 04:45:00,
2013-08-25 00:50:00,52.4,51.0,30.59,NE,44,2.0,2.0,95,0.00,,,0.00,Wunderground v.1.15,2013-08-25 04:50:00,
2013-08-25 00:55:00,52.4,51.0,30.59,NE,45,2.0,3.0,95,0.00,,,0.00,Wunderground v.1.15,2013-08-25 04:55:00,
2013-08-25 01:05:00,52.5,51.1,30.58,NE,44,1.0,3.0,95,0.00,,,0.00,Wunderground v.1.15,2013-08-25 05:05:00,
2013-08-25 01:10:00,52.4,51.0,30.59,NE,44,1.0,3.0,95,0.00,,,0.00,Wunderground v.1.15,2013-08-25 05:10:00,
2013-08-25 01:15:00,52.7,51.3,30.59,NE,44,2.0,3.0,95,0.00,,,0.00,Wunderground v.1.15,2013-08-25 05:15:00,
2013-08-25 01:20:00,53.1,52.0,30.59,NE,44,2.0,3.0,96,0.00,,,0.00,Wunderground v.1.15,2013-08-25 05:20:00,
2013-08-25 01:25:00,52.9,51.5,30.59,NE,44,2.0,3.0,95,0.00,,,0.00,Wunderground v.1.15,2013-08-25 05:25:00,
2013-08-25 01:35:00,52.6,51.2,30.58,NE,45,2.0,3.0,95,0.00,,,0.00,Wunderground v.1.15,2013-08-25 05:35:00,
2013-08-25 01:40:00,52.4,51.0,30.58,NE,44,1.0,3.0,95,0.00,,,0.00,Wunderground v.1.15,2013-08-25 05:40:00,
2013-08-25 01:45:00,52.2,50.8,30.58,NE,44,1.0,3.0,95,0.00,,,0.00,Wunderground v.1.15,2013-08-25 05:45:00,
2013-08-25 01:50:00,52.1,50.7,30.58,NE,48,2.0,3.0,95,0.00,,,0.00,Wunderground v.1.15,2013-08-25 05:50:00,
2013-08-25 01:55:00,52.1,50.7,30.58,NE,48,2.0,3.0,95,0.00,,,0.00,Wunderground v.1.15,2013-08-25 05:55:00,
2013-08-25 02:00:00,51.8,50.4,30.58,NE,48,2.0,2.0,95,0.00,,,0.00,Wunderground v.1.15,2013-08-25 06:00:00,
2013-08-25 02:10:00,51.7,50.3,30.58,NE,48,1.0,3.0,95,0.00,,,0.00,Wunderground v.1.15,2013-08-25 06:10:00,
2013-08-25 02:15:00,51.7,50.3,30.58,NE,48,1.0,3.0,95,0.00,,,0.00,Wunderground v.1.15,2013-08-25 06:15:00,
2013-08-25 02:20:00,51.8,50.4,30.58,SSE,157,2.0,5.0,95,0.00,,,0.00,Wunderground v.1.15,2013-08-25 06:20:00,
2013-08-25 02:25:00,52.1,51.0,30.58,SSE,158,3.0,5.0,96,0.00,,,0.00,Wunderground v.1.15,2013-08-25 06:25:00,
2013-08-25 02:30:00,52.3,51.2,30.58,SSE,158,4.0,4.0,96,0.00,,,0.00,Wunderground v.1.15,2013-08-25 06:30:00,
2013-08-25 02:40:00,52.9,51.8,30.58,SSE,159,4.0,4.0,96,0.00,,,0.00,Wunderground v.1.15,2013-08-25 06:40:00,
2013-08-25 02:45:00,53.1,52.0,30.58,SSE,159,4.0,4.0,96,0.00,,,0.00,Wunderground v.1.15,2013-08-25 06:45:00,
2013-08-25 02:50:00,53.2,51.8,30.58,SSE,161,4.0,5.0,95,0.00,,,0.00,Wunderground v.1.15,2013-08-25 06:50:00,
2013-08-25 02:55:00,53.2,51.8,30.57,SSE,163,5.0,6.0,95,0.00,,,0.00,Wunderground v.1.15,2013-08-25 06:55:00,
2013-08-25 03:00:00,53.2,51.8,30.57,SSE,163,5.0,5.0,95,0.00,,,0.00,Wunderground v.1.15,2013-08-25 07:00:00,
2013-08-25 03:05:00,53.0,51.6,30.57,SSE,163,4.0,5.0,95,0.00,,,0.00,Wunderground v.1.15,2013-08-25 07:05:00,
2013-08-25 03:15:00,52.5,51.1,30.58,SSE,163,3.0,4.0,95,0.00,,,0.00,Wunderground v.1.15,2013-08-25 07:15:00,
2013-08-25 03:20:00,52.3,50.6,30.58,SSE,163,2.0,3.0,94,0.00,,,0.00,Wunderground v.1.15,2013-08-25 07:20:00,
2013-08-25 03:25:00,52.1,50.7,30.58,SSE,163,2.0,3.0,95,0.00,,,0.00,Wunderground v.1.15,2013-08-25 07:25:00,
2013-08-25 03:30:00,52.0,50.6,30.58,SSE,163,3.0,5.0,95,0.00,,,0.00,Wunderground v.1.15,2013-08-25 07:30:00,
2013-08-25 03:35:00,52.0,50.6,30.58,SSE,163,3.0,5.0,95,0.00,,,0.00,Wunderground v.1.15,2013-08-25 07:35:00,
2013-08-25 03:45:00,51.5,49.8,30.58,SSE,163,1.0,2.0,94,0.00,,,0.00,Wunderground v.1.15,2013-08-25 07:45:00,
2013-08-25 03:50:00,51.4,50.0,30.58,SSE,163,1.0,1.0,95,0.00,,,0.00,Wunderground v.1.15,2013-08-25 07:50:00,
2013-08-25 03:55:00,51.3,49.9,30.58,SSE,163,1.0,2.0,95,0.00,,,0.00,Wunderground v.1.15,2013-08-25 07:55:00,
2013-08-25 04:00:00,51.2,49.8,30.58,SSE,163,1.0,3.0,95,0.00,,,0.00,Wunderground v.1.15,2013-08-25 08:00:00,
2013-08-25 04:05:00,51.0,49.6,30.59,SSE,163,2.0,3.0,95,0.00,,,0.00,Wunderground v.1.15,2013-08-25 08:05:00,
2013-08-25 04:10:00,50.8,49.4,30.58,SSE,163,1.0,1.0,95,0.00,,,0.00,Wunderground v.1.15,2013-08-25 08:10:00,
2013-08-25 04:15:00,50.8,49.4,30.58,SSE,163,1.0,3.0,95,0.00,,,0.00,Wunderground v.1.15,2013-08-25 08:15:00,
2013-08-25 04:20:00,50.8,49.4,30.59,SSE,163,2.0,3.0,95,0.00,,,0.00,Wunderground v.1.15,2013-08-25 08:20:00,
2013-08-25 04:25:00,50.8,49.4,30.59,SSE,163,2.0,3.0,95,0.00,,,0.00,Wunderground v.1.15,2013-08-25 08:25:00,
2013-08-25 04:30:00,50.5,49.1,30.59,SSE,163,2.0,3.0,95,0.00,,,0.00,Wunderground v.1.15,2013-08-25 08:30:00,
2013-08-25 04:35:00,50.6,49.2,30.59,SSE,163,3.0,4.0,95,0.00,,,0.00,Wunderground v.1.15,2013-08-25 08:35:00,
2013-08-25 04:40:00,50.7,49.6,30.59,SSE,163,3.0,3.0,96,0.00,,,0.00,Wunderground v.1.15,2013-08-25 08:40:00,
2013-08-25 04:50:00,50.7,49.6,30.59,SSE,163,2.0,3.0,96,0.00,,,0.00,Wunderground v.1.15,2013-08-25 08:50:00,
2013-08-25 04:55:00,50.5,49.1,30.59,SSE,163,2.0,3.0,95,0.00,,,0.00,Wunderground v.1.15,2013-08-25 08:55:00,
2013-08-25 05:00:00,50.4,49.0,30.59,SSE,163,2.0,3.0,95,0.00,,,0.00,Wunderground v.1.15,2013-08-25 09:00:00,
2013-08-25 05:05:00,50.4,49.3,30.59,SSE,163,2.0,3.0,96,0.00,,,0.00,Wunderground v.1.15,2013-08-25 09:05:00,
2013-08-25 05:10:00,50.6,49.5,30.59,SSE,163,2.0,3.0,96,0.00,,,0.00,Wunderground v.1.15,2013-08-25 09:10:00,
2013-08-25 05:20:00,50.7,49.6,30.60,SSE,163,3.0,3.0,96,0.00,,,0.00,Wunderground v.1.15,2013-08-25 09:20:00,
2013-08-25 05:25:00,51.0,49.9,30.59,SSE,163,3.0,3.0,96,0.00,,,0.00,Wunderground v.1.15,2013-08-25 09:25:00,
2013-08-25 05:30:00,50.9,49.8,30.59,SSE,163,2.0,2.0,96,0.00,,,0.00,Wunderground v.1.15,2013-08-25 09:30:00,
2013-08-25 05:35:00,50.7,49.6,30.60,SSE,163,1.0,3.0,96,0.00,,,0.00,Wunderground v.1.15,2013-08-25 09:35:00,
2013-08-25 05:40:00,50.8,49.7,30.60,SSE,163,2.0,3.0,96,0.00,,,0.00,Wunderground v.1.15,2013-08-25 09:40:00,
2013-08-25 05:45:00,51.2,50.1,30.60,SSE,163,2.0,3.0,96,0.00,,,0.00,Wunderground v.1.15,2013-08-25 09:45:00,
2013-08-25 05:55:00,51.1,50.0,30.60,SSE,163,2.0,3.0,96,0.00,,,0.01,Wunderground v.1.15,2013-08-25 09:55:00,
2013-08-25 06:00:00,51.1,50.0,30.60,SSE,163,2.0,3.0,96,0.00,,,0.01,Wunderground v.1.15,2013-08-25 10:00:00,
2013-08-25 06:10:00,51.2,50.1,30.60,SSE,163,3.0,3.0,96,0.00,,,0.01,Wunderground v.1.15,2013-08-25 10:10:00,
2013-08-25 06:15:00,51.2,50.1,30.60,SSE,163,2.0,3.0,96,0.00,,,0.01,Wunderground v.1.15,2013-08-25 10:15:00,
2013-08-25 06:25:00,51.7,50.6,30.60,SSE,163,3.0,4.0,96,0.00,,,0.01,Wunderground v.1.15,2013-08-25 10:25:00,
2013-08-25 06:30:00,51.5,50.4,30.60,SSE,163,3.0,3.0,96,0.00,,,0.01,Wunderground v.1.15,2013-08-25 10:30:00,
2013-08-25 06:35:00,51.4,50.3,30.60,SSE,163,3.0,4.0,96,0.00,,,0.01,Wunderground v.1.15,2013-08-25 10:35:00,
2013-08-25 06:40:00,51.5,50.4,30.60,SSE,163,3.0,3.0,96,0.00,,,0.01,Wunderground v.1.15,2013-08-25 10:40:00,
2013-08-25 06:45:00,51.6,50.5,30.61,SSE,163,3.0,3.0,96,0.00,,,0.01,Wunderground v.1.15,2013-08-25 10:45:00,
2013-08-25 06:50:00,51.6,50.5,30.61,SSE,163,3.0,3.0,96,0.00,,,0.01,Wunderground v.1.15,2013-08-25 10:50:00,
2013-08-25 07:00:00,51.6,50.5,30.61,SSE,163,3.0,3.0,96,0.00,,,0.01,Wunderground v.1.15,2013-08-25 11:00:00,
2013-08-25 07:05:00,51.7,50.6,30.61,SSE,163,3.0,5.0,96,0.00,,,0.01,Wunderground v.1.15,2013-08-25 11:05:00,
2013-08-25 07:10:00,51.7,50.6,30.61,SSE,163,3.0,3.0,96,0.00,,,0.01,Wunderground v.1.15,2013-08-25 11:10:00,
2013-08-25 07:15:00,51.9,50.8,30.61,SSE,163,3.0,5.0,96,0.00,,,0.01,Wunderground v.1.15,2013-08-25 11:15:00,
2013-08-25 07:20:00,51.9,50.8,30.61,SSE,163,2.0,5.0,96,0.00,,,0.01,Wunderground v.1.15,2013-08-25 11:20:00,
2013-08-25 07:25:00,51.9,50.8,30.61,SSE,163,2.0,5.0,96,0.00,,,0.01,Wunderground v.1.15,2013-08-25 11:25:00,
2013-08-25 07:30:00,52.3,51.2,30.61,SSE,163,1.0,5.0,96,0.00,,,0.01,Wunderground v.1.15,2013-08-25 11:30:00,
2013-08-25 07:35:00,52.9,51.8,30.61,SSE,163,1.0,5.0,96,0.00,,,0.01,Wunderground v.1.15,2013-08-25 11:35:00,
2013-08-25 07:40:00,53.5,52.4,30.61,SSE,163,1.0,1.0,96,0.00,,,0.01,Wunderground v.1.15,2013-08-25 11:40:00,
2013-08-25 07:50:00,54.9,54.1,30.61,SSE,163,1.0,5.0,97,0.00,,,0.01,Wunderground v.1.15,2013-08-25 11:50:00,
2013-08-25 07:55:00,55.5,54.4,30.62,SSE,163,1.0,5.0,96,0.00,,,0.01,Wunderground v.1.15,2013-08-25 11:55:00,
2013-08-25 08:00:00,56.4,55.3,30.61,SSE,163,2.0,5.0,96,0.00,,,0.01,Wunderground v.1.15,2013-08-25 12:00:00,
2013-08-25 08:05:00,57.1,55.7,30.61,SSE,157,4.0,5.0,95,0.00,,,0.01,Wunderground v.1.15,2013-08-25 12:05:00,
2013-08-25 08:10:00,57.8,56.1,30.61,SSE,166,4.0,6.0,94,0.00,,,0.01,Wunderground v.1.15,2013-08-25 12:10:00,
2013-08-25 08:15:00,58.6,56.6,30.61,South,174,4.0,6.0,93,0.00,,,0.01,Wunderground v.1.15,2013-08-25 12:15:00,
2013-08-25 08:20:00,59.4,56.8,30.60,South,171,4.0,5.0,91,0.00,,,0.01,Wunderground v.1.15,2013-08-25 12:20:00,
2013-08-25 08:25:00,60.2,56.9,30.60,SSE,163,4.0,5.0,89,0.00,,,0.01,Wunderground v.1.15,2013-08-25 12:25:00,
2013-08-25 08:35:00,61.2,57.3,30.60,South,180,5.0,6.0,87,0.00,,,0.01,Wunderground v.1.15,2013-08-25 12:35:00,
2013-08-25 08:40:00,61.7,57.1,30.60,South,169,5.0,5.0,85,0.00,,,0.01,Wunderground v.1.15,2013-08-25 12:40:00,
2013-08-25 08:45:00,62.1,57.2,30.60,South,189,5.0,5.0,84,0.00,,,0.01,Wunderground v.1.15,2013-08-25 12:45:00,
2013-08-25 08:50:00,62.6,57.7,30.60,South,177,5.0,5.0,84,0.00,,,0.01,Wunderground v.1.15,2013-08-25 12:50:00,
2013-08-25 08:55:00,63.1,57.9,30.60,South,177,4.0,6.0,83,0.00,,,0.01,Wunderground v.1.15,2013-08-25 12:55:00,
2013-08-25 09:05:00,63.8,58.5,30.59,South,179,5.0,5.0,83,0.00,,,0.01,Wunderground v.1.15,2013-08-25 13:05:00,
2013-08-25 09:10:00,64.3,59.0,30.60,South,189,3.0,3.0,83,0.00,,,0.01,Wunderground v.1.15,2013-08-25 13:10:00,
2013-08-25 09:15:00,64.2,58.9,30.59,South,174,3.0,5.0,83,0.00,,,0.01,Wunderground v.1.15,2013-08-25 13:15:00,
2013-08-25 09:20:00,64.8,59.9,30.59,South,173,2.0,5.0,84,0.00,,,0.01,Wunderground v.1.15,2013-08-25 13:20:00,
2013-08-25 09:25:00,65.9,60.6,30.59,South,173,2.0,5.0,83,0.00,,,0.01,Wunderground v.1.15,2013-08-25 13:25:00,
2013-08-25 09:30:00,67.0,60.6,30.59,South,179,2.0,7.0,80,0.00,,,0.01,Wunderground v.1.15,2013-08-25 13:30:00,
2013-08-25 09:40:00,68.4,60.5,30.59,SSW,196,4.0,4.0,76,0.00,,,0.01,Wunderground v.1.15,2013-08-25 13:40:00,
2013-08-25 09:45:00,69.2,62.0,30.59,South,186,3.0,5.0,78,0.00,,,0.01,Wunderground v.1.15,2013-08-25 13:45:00,
2013-08-25 09:50:00,69.7,61.4,30.59,South,183,2.0,5.0,75,0.00,,,0.01,Wunderground v.1.15,2013-08-25 13:50:00,
2013-08-25 09:55:00,69.4,61.1,30.58,South,186,3.0,9.0,75,0.00,,,0.01,Wunderground v.1.15,2013-08-25 13:55:00,
2013-08-25 10:00:00,69.7,61.4,30.58,SSE,162,3.0,3.0,75,0.00,,,0.01,Wunderground v.1.15,2013-08-25 14:00:00,
2013-08-25 10:10:00,71.3,61.8,30.58,SSW,205,4.0,4.0,72,0.00,,,0.01,Wunderground v.1.15,2013-08-25 14:10:00,
2013-08-25 10:15:00,72.2,62.3,30.57,SSW,194,4.0,5.0,71,0.00,,,0.01,Wunderground v.1.15,2013-08-25 14:15:00,
2013-08-25 10:20:00,72.8,62.0,30.58,SW,214,4.0,4.0,69,0.00,,,0.01,Wunderground v.1.15,2013-08-25 14:20:00,
2013-08-25 10:25:00,73.3,62.9,30.57,SSW,197,4.0,5.0,70,0.00,,,0.01,Wunderground v.1.15,2013-08-25 14:25:00,
2013-08-25 10:30:00,73.9,62.7,30.57,SW,221,3.0,3.0,68,0.00,,,0.01,Wunderground v.1.15,2013-08-25 14:30:00,
2013-08-25 10:35:00,74.2,62.5,30.57,SSW,212,3.0,5.0,67,0.00,,,0.01,Wunderground v.1.15,2013-08-25 14:35:00,
2013-08-25 10:45:00,74.4,61.9,30.57,SSW,205,4.0,5.0,65,0.00,,,0.01,Wunderground v.1.15,2013-08-25 14:45:00,
2013-08-25 10:50:00,74.9,62.3,30.57,SSW,213,4.0,7.0,65,0.00,,,0.01,Wunderground v.1.15,2013-08-25 14:50:00,
2013-08-25 10:55:00,75.2,62.6,30.57,SSW,202,5.0,8.0,65,0.00,,,0.01,Wunderground v.1.15,2013-08-25 14:55:00,
2013-08-25 11:00:00,75.5,61.6,30.57,SSW,205,6.0,6.0,62,0.00,,,0.01,Wunderground v.1.15,2013-08-25 15:00:00,
2013-08-25 11:05:00,76.1,62.1,30.57,South,182,5.0,6.0,62,0.00,,,0.01,Wunderground v.1.15,2013-08-25 15:05:00,
2013-08-25 11:10:00,76.5,61.6,30.57,SW,225,4.0,4.0,60,0.00,,,0.01,Wunderground v.1.15,2013-08-25 15:10:00,
2013-08-25 11:15:00,76.6,60.7,30.57,WSW,248,4.0,5.0,58,0.00,,,0.01,Wunderground v.1.15,2013-08-25 15:15:00,
2013-08-25 11:20:00,76.6,61.2,30.57,SW,229,5.0,6.0,59,0.00,,,0.01,Wunderground v.1.15,2013-08-25 15:20:00,
2013-08-25 11:25:00,76.7,60.8,30.57,WSW,237,5.0,6.0,58,0.00,,,0.01,Wunderground v.1.15,2013-08-25 15:25:00,
2013-08-25 11:30:00,77.3,61.4,30.57,West,265,5.0,5.0,58,0.00,,,0.01,Wunderground v.1.15,2013-08-25 15:30:00,
2013-08-25 11:35:00,77.6,62.1,30.57,WSW,255,4.0,5.0,59,0.00,,,0.01,Wunderground v.1.15,2013-08-25 15:35:00,
2013-08-25 11:45:00,77.5,61.6,30.57,West,269,4.0,5.0,58,0.00,,,0.01,Wunderground v.1.15,2013-08-25 15:45:00,
2013-08-25 11:50:00,77.4,61.5,30.57,WNW,288,4.0,4.0,58,0.00,,,0.01,Wunderground v.1.15,2013-08-25 15:50:00,
2013-08-25 11:55:00,77.6,61.2,30.57,NW,311,4.0,5.0,57,0.00,,,0.01,Wunderground v.1.15,2013-08-25 15:55:00,
2013-08-25 12:00:00,77.5,60.6,30.56,WNW,298,5.0,5.0,56,0.00,,,0.01,Wunderground v.1.15,2013-08-25 16:00:00,
2013-08-25 12:10:00,78.2,59.7,30.56,SW,218,5.0,12.0,53,0.00,,,0.01,Wunderground v.1.15,2013-08-25 16:10:00,
2013-08-25 12:20:00,78.3,59.8,30.55,West,271,5.0,5.0,53,0.00,,,0.01,Wunderground v.1.15,2013-08-25 16:20:00,
2013-08-25 12:25:00,78.1,60.1,30.55,WNW,290,3.0,5.0,54,0.00,,,0.01,Wunderground v.1.15,2013-08-25 16:25:00,
2013-08-25 12:30:00,78.1,58.5,30.55,WSW,247,5.0,6.0,51,0.00,,,0.01,Wunderground v.1.15,2013-08-25 16:30:00,
2013-08-25 12:35:00,77.6,59.6,30.54,SW,218,7.0,7.0,54,0.00,,,0.01,Wunderground v.1.15,2013-08-25 16:35:00,
2013-08-25 12:40:00,78.1,58.5,30.54,West,267,7.0,9.0,51,0.00,,,0.01,Wunderground v.1.15,2013-08-25 16:40:00,
2013-08-25 12:50:00,78.1,59.6,30.53,SSW,209,8.0,8.0,53,0.00,,,0.01,Wunderground v.1.15,2013-08-25 16:50:00,
2013-08-25 12:55:00,78.7,59.0,30.53,SSW,193,8.0,8.0,51,0.00,,,0.01,Wunderground v.1.15,2013-08-25 16:55:00,
2013-08-25 13:00:00,78.7,59.0,30.53,SW,225,8.0,8.0,51,0.00,,,0.01,Wunderground v.1.15,2013-08-25 17:00:00,
2013-08-25 13:05:00,78.1,57.9,30.53,West,268,6.0,9.0,50,0.00,,,0.01,Wunderground v.1.15,2013-08-25 17:05:00,
2013-08-25 13:10:00,78.3,58.7,30.53,WSW,241,6.0,11.0,51,0.00,,,0.01,Wunderground v.1.15,2013-08-25 17:10:00,
2013-08-25 13:15:00,78.8,58.6,30.52,SW,219,7.0,11.0,50,0.00,,,0.01,Wunderground v.1.15,2013-08-25 17:15:00,
2013-08-25 13:25:00,78.2,59.1,30.53,WSW,251,6.0,9.0,52,0.00,,,0.01,Wunderground v.1.15,2013-08-25 17:25:00,
2013-08-25 13:30:00,79.2,59.0,30.53,SW,220,6.0,10.0,50,0.00,,,0.01,Wunderground v.1.15,2013-08-25 17:30:00,
2013-08-25 13:35:00,79.9,59.0,30.52,SSW,213,8.0,10.0,49,0.00,,,0.01,Wunderground v.1.15,2013-08-25 17:35:00,
2013-08-25 13:40:00,80.0,58.5,30.52,SW,222,7.0,7.0,48,0.00,,,0.01,Wunderground v.1.15,2013-08-25 17:40:00,
2013-08-25 13:45:00,80.5,60.1,30.52,West,259,6.0,12.0,50,0.00,,,0.01,Wunderground v.1.15,2013-08-25 17:45:00,
2013-08-25 13:55:00,80.4,60.6,30.52,WSW,237,6.0,9.0,51,0.00,,,0.01,Wunderground v.1.15,2013-08-25 17:55:00,
2013-08-25 14:00:00,80.4,60.1,30.52,SW,225,8.0,8.0,50,0.00,,,0.01,Wunderground v.1.15,2013-08-25 18:00:00,
2013-08-25 14:05:00,80.1,60.3,30.52,WSW,251,7.0,9.0,51,0.00,,,0.01,Wunderground v.1.15,2013-08-25 18:05:00,
2013-08-25 14:10:00,80.0,60.2,30.52,SW,217,6.0,6.0,51,0.00,,,0.01,Wunderground v.1.15,2013-08-25 18:10:00,
2013-08-25 14:15:00,79.9,58.5,30.52,WSW,243,7.0,12.0,48,0.00,,,0.01,Wunderground v.1.15,2013-08-25 18:15:00,
2013-08-25 14:20:00,79.8,58.9,30.52,SW,227,8.0,9.0,49,0.00,,,0.01,Wunderground v.1.15,2013-08-25 18:20:00,
2013-08-25 14:30:00,79.6,58.2,30.52,SW,234,8.0,8.0,48,0.00,,,0.01,Wunderground v.1.15,2013-08-25 18:30:00,
2013-08-25 14:35:00,79.5,58.1,30.51,SW,226,6.0,9.0,48,0.00,,,0.01,Wunderground v.1.15,2013-08-25 18:35:00,
2013-08-25 14:40:00,79.9,59.6,30.51,SW,232,5.0,9.0,50,0.00,,,0.01,Wunderground v.1.15,2013-08-25 18:40:00,
2013-08-25 14:45:00,80.2,57.5,30.52,West,267,7.0,9.0,46,0.00,,,0.01,Wunderground v.1.15,2013-08-25 18:45:00,
2013-08-25 14:50:00,80.2,58.1,30.51,WSW,243,8.0,9.0,47,0.00,,,0.01,Wunderground v.1.15,2013-08-25 18:50:00,
2013-08-25 15:00:00,80.2,57.5,30.51,WSW,257,7.0,7.0,46,0.00,,,0.01,Wunderground v.1.15,2013-08-25 19:00:00,
2013-08-25 15:05:00,80.2,58.7,30.51,SW,236,7.0,9.0,48,0.00,,,0.01,Wunderground v.1.15,2013-08-25 19:05:00,
2013-08-25 15:10:00,80.4,58.3,30.51,SW,220,7.0,9.0,47,0.00,,,0.01,Wunderground v.1.15,2013-08-25 19:10:00,
2013-08-25 15:15:00,80.5,59.0,30.51,SW,223,8.0,9.0,48,0.00,,,0.01,Wunderground v.1.15,2013-08-25 19:15:00,
2013-08-25 15:20:00,80.7,58.6,30.50,WSW,248,7.0,7.0,47,0.00,,,0.01,Wunderground v.1.15,2013-08-25 19:20:00,
2013-08-25 15:25:00,81.1,59.6,30.50,West,261,6.0,9.0,48,0.00,,,0.01,Wunderground v.1.15,2013-08-25 19:25:00,
2013-08-25 15:30:00,80.9,58.8,30.49,WSW,237,5.0,5.0,47,0.00,,,0.01,Wunderground v.1.15,2013-08-25 19:30:00,
2013-08-25 15:35:00,80.6,60.2,30.49,SSW,192,6.0,6.0,50,0.00,,,0.01,Wunderground v.1.15,2013-08-25 19:35:00,
2013-08-25 15:40:00,80.5,60.1,30.49,SW,232,6.0,6.0,50,0.00,,,0.01,Wunderground v.1.15,2013-08-25 19:40:00,
2013-08-25 15:45:00,80.3,57.6,30.48,WSW,256,6.0,7.0,46,0.00,,,0.01,Wunderground v.1.15,2013-08-25 19:45:00,
2013-08-25 15:50:00,80.0,58.5,30.48,SW,236,6.0,9.0,48,0.00,,,0.01,Wunderground v.1.15,2013-08-25 19:50:00,
2013-08-25 15:55:00,80.4,60.1,30.48,SW,231,5.0,9.0,50,0.00,,,0.01,Wunderground v.1.15,2013-08-25 19:55:00,
2013-08-25 16:05:00,80.7,58.6,30.47,SW,232,5.0,9.0,47,0.00,,,0.01,Wunderground v.1.15,2013-08-25 20:05:00,
2013-08-25 16:10:00,80.4,59.5,30.48,WNW,288,5.0,5.0,49,0.00,,,0.01,Wunderground v.1.15,2013-08-25 20:10:00,
2013-08-25 16:15:00,80.1,59.2,30.47,WSW,240,4.0,9.0,49,0.00,,,0.01,Wunderground v.1.15,2013-08-25 20:15:00,
2013-08-25 16:20:00,80.2,58.7,30.47,West,269,4.0,4.0,48,0.00,,,0.01,Wunderground v.1.15,2013-08-25 20:20:00,
2013-08-25 16:25:00,80.1,59.2,30.47,West,263,4.0,6.0,49,0.00,,,0.01,Wunderground v.1.15,2013-08-25 20:25:00,
2013-08-25 16:35:00,80.3,58.8,30.47,WSW,246,5.0,9.0,48,0.00,,,0.01,Wunderground v.1.15,2013-08-25 20:35:00,
2013-08-25 16:40:00,80.6,58.5,30.47,WSW,248,4.0,9.0,47,0.00,,,0.01,Wunderground v.1.15,2013-08-25 20:40:00,
2013-08-25 16:45:00,80.7,59.8,30.48,WSW,250,4.0,9.0,49,0.00,,,0.01,Wunderground v.1.15,2013-08-25 20:45:00,
2013-08-25 16:50:00,80.7,59.2,30.47,WSW,246,4.0,9.0,48,0.00,,,0.01,Wunderground v.1.15,2013-08-25 20:50:00,
2013-08-25 16:55:00,80.5,59.6,30.47,SW,229,5.0,9.0,49,0.00,,,0.01,Wunderground v.1.15,2013-08-25 20:55:00,
2013-08-25 17:00:00,80.2,59.9,30.47,SW,233,6.0,6.0,50,0.00,,,0.01,Wunderground v.1.15,2013-08-25 21:00:00,
2013-08-25 17:10:00,79.4,59.1,30.46,WSW,240,5.0,9.0,50,0.00,,,0.01,Wunderground v.1.15,2013-08-25 21:10:00,
2013-08-25 17:15:00,79.1,59.4,30.45,SSW,194,5.0,9.0,51,0.00,,,0.01,Wunderground v.1.15,2013-08-25 21:15:00,
2013-08-25 17:20:00,78.7,60.1,30.45,SW,222,5.0,5.0,53,0.00,,,0.01,Wunderground v.1.15,2013-08-25 21:20:00,
2013-08-25 17:25:00,78.7,60.1,30.45,SW,223,4.0,9.0,53,0.00,,,0.01,Wunderground v.1.15,2013-08-25 21:25:00,
2013-08-25 17:30:00,78.7,61.2,30.45,SW,226,4.0,4.0,55,0.00,,,0.01,Wunderground v.1.15,2013-08-25 21:30:00,
2013-08-25 17:40:00,78.8,60.2,30.45,SW,226,3.0,9.0,53,0.00,,,0.01,Wunderground v.1.15,2013-08-25 21:40:00,
2013-08-25 17:45:00,78.7,60.7,30.45,SW,226,3.0,9.0,54,0.00,,,0.01,Wunderground v.1.15,2013-08-25 21:45:00,
2013-08-25 17:50:00,78.7,60.7,30.44,WSW,246,3.0,3.0,54,0.00,,,0.01,Wunderground v.1.15,2013-08-25 21:50:00,
2013-08-25 17:55:00,78.7,62.7,30.44,SW,231,3.0,9.0,58,0.00,,,0.01,Wunderground v.1.15,2013-08-25 21:55:00,
2013-08-25 18:00:00,78.5,62.0,30.44,SW,231,2.0,2.0,57,0.00,,,0.01,Wunderground v.1.15,2013-08-25 22:00:00,
2013-08-25 18:10:00,78.0,62.0,30.44,SW,231,2.0,3.0,58,0.00,,,0.01,Wunderground v.1.15,2013-08-25 22:10:00,
2013-08-25 18:15:00,77.6,62.1,30.44,SW,231,2.0,3.0,59,0.00,,,0.01,Wunderground v.1.15,2013-08-25 22:15:00,
2013-08-25 18:20:00,77.2,63.6,30.43,SW,231,1.0,1.0,63,0.00,,,0.01,Wunderground v.1.15,2013-08-25 22:20:00,
2013-08-25 18:25:00,76.9,63.8,30.43,SW,234,0.0,1.0,64,0.00,,,0.01,Wunderground v.1.15,2013-08-25 22:25:00,
2013-08-25 18:30:00,76.6,63.1,30.43,SW,234,0.0,0.0,63,0.00,,,0.01,Wunderground v.1.15,2013-08-25 22:30:00,
2013-08-25 18:35:00,76.0,62.9,30.43,SW,234,0.0,0.0,64,0.00,,,0.01,Wunderground v.1.15,2013-08-25 22:35:00,
2013-08-25 18:45:00,74.9,63.6,30.42,SW,234,0.0,0.0,68,0.00,,,0.01,Wunderground v.1.15,2013-08-25 22:45:00,
2013-08-25 18:50:00,74.4,63.6,30.41,SW,234,0.0,3.0,69,0.00,,,0.01,Wunderground v.1.15,2013-08-25 22:50:00,
2013-08-25 18:55:00,74.0,64.0,30.41,SW,234,1.0,4.0,71,0.00,,,0.01,Wunderground v.1.15,2013-08-25 22:55:00,
2013-08-25 19:00:00,73.6,62.4,30.41,SW,233,2.0,4.0,68,0.00,,,0.01,Wunderground v.1.15,2013-08-25 23:00:00,
2013-08-25 19:05:00,73.4,62.6,30.40,SW,233,3.0,6.0,69,0.00,,,0.01,Wunderground v.1.15,2013-08-25 23:05:00,
2013-08-25 19:10:00,73.3,62.1,30.40,SW,233,3.0,6.0,68,0.00,,,0.01,Wunderground v.1.15,2013-08-25 23:10:00,
2013-08-25 19:15:00,73.1,62.3,30.40,SSW,213,4.0,6.0,69,0.00,,,0.01,Wunderground v.1.15,2013-08-25 23:15:00,
2013-08-25 19:20:00,73.0,62.2,30.39,SSW,212,4.0,6.0,69,0.00,,,0.01,Wunderground v.1.15,2013-08-25 23:20:00,
2013-08-25 19:25:00,72.8,61.6,30.39,SSW,209,4.0,6.0,68,0.00,,,0.01,Wunderground v.1.15,2013-08-25 23:25:00,
2013-08-25 19:30:00,72.6,61.4,30.39,SSW,208,3.0,6.0,68,0.00,,,0.01,Wunderground v.1.15,2013-08-25 23:30:00,
2013-08-25 19:35:00,72.5,61.7,30.39,SSW,208,3.0,6.0,69,0.00,,,0.01,Wunderground v.1.15,2013-08-25 23:35:00,
2013-08-25 19:40:00,72.0,61.7,30.40,SSW,208,3.0,3.0,70,0.00,,,0.01,Wunderground v.1.15,2013-08-25 23:40:00,
2013-08-25 19:50:00,71.4,61.5,30.40,SSW,208,1.0,1.0,71,0.00,,,0.01,Wunderground v.1.15,2013-08-25 23:50:00,
2013-08-25 19:55:00,71.4,61.5,30.41,SSW,208,0.0,6.0,71,0.00,,,0.01,Wunderground v.1.15,2013-08-25 23:55:00,
2013-08-25 20:00:00,71.4,61.9,30.40,SSW,208,0.0,6.0,72,0.00,,,0.01,Wunderground v.1.15,2013-08-26 00:00:00,
2013-08-25 20:05:00,71.0,62.3,30.40,SSW,208,0.0,6.0,74,0.00,,,0.01,Wunderground v.1.15,2013-08-26 00:05:00,
2013-08-25 20:10:00,70.5,61.8,30.41,SSW,208,0.0,6.0,74,0.00,,,0.01,Wunderground v.1.15,2013-08-26 00:10:00,
2013-08-25 20:20:00,69.5,61.6,30.41,SSW,208,0.0,6.0,76,0.00,,,0.01,Wunderground v.1.15,2013-08-26 00:20:00,
2013-08-25 20:25:00,69.4,61.9,30.41,SSW,208,0.0,6.0,77,0.00,,,0.01,Wunderground v.1.15,2013-08-26 00:25:00,
2013-08-25 20:30:00,69.0,61.9,30.41,SSW,208,0.0,6.0,78,0.00,,,0.01,Wunderground v.1.15,2013-08-26 00:30:00,
2013-08-25 20:35:00,68.5,61.4,30.40,SSW,208,1.0,6.0,78,0.00,,,0.01,Wunderground v.1.15,2013-08-26 00:35:00,
2013-08-25 20:40:00,68.3,61.5,30.40,SSW,208,1.0,1.0,79,0.00,,,0.01,Wunderground v.1.15,2013-08-26 00:40:00,
2013-08-25 20:45:00,67.9,61.5,30.40,SSW,208,0.0,6.0,80,0.00,,,0.01,Wunderground v.1.15,2013-08-26 00:45:00,
2013-08-25 20:55:00,67.4,61.7,30.40,SSW,208,1.0,6.0,82,0.00,,,0.01,Wunderground v.1.15,2013-08-26 00:55:00,
2013-08-25 21:00:00,67.3,61.6,30.40,SSW,208,1.0,1.0,82,0.00,,,0.01,Wunderground v.1.15,2013-08-26 01:00:00,
2013-08-25 21:05:00,67.4,61.7,30.40,SSW,208,1.0,6.0,82,0.00,,,0.01,Wunderground v.1.15,2013-08-26 01:05:00,
2013-08-25 21:10:00,67.4,62.1,30.40,SSW,208,1.0,6.0,83,0.00,,,0.01,Wunderground v.1.15,2013-08-26 01:10:00,
2013-08-25 21:15:00,67.1,61.8,30.39,SSW,208,1.0,6.0,83,0.00,,,0.01,Wunderground v.1.15,2013-08-26 01:15:00,
2013-08-25 21:25:00,67.3,61.3,30.39,SSW,208,3.0,6.0,81,0.00,,,0.01,Wunderground v.1.15,2013-08-26 01:25:00,
2013-08-25 21:30:00,67.7,61.3,30.39,SSW,208,3.0,3.0,80,0.00,,,0.01,Wunderground v.1.15,2013-08-26 01:30:00,
2013-08-25 21:35:00,68.0,61.6,30.39,SSW,208,3.0,6.0,80,0.00,,,0.01,Wunderground v.1.15,2013-08-26 01:35:00,
2013-08-25 21:40:00,68.2,61.4,30.39,SSW,208,3.0,6.0,79,0.00,,,0.01,Wunderground v.1.15,2013-08-26 01:40:00,
2013-08-25 21:45:00,68.1,61.7,30.39,SSW,208,2.0,6.0,80,0.00,,,0.01,Wunderground v.1.15,2013-08-26 01:45:00,
2013-08-25 21:50:00,68.0,61.6,30.39,SSW,208,1.0,6.0,80,0.00,,,0.01,Wunderground v.1.15,2013-08-26 01:50:00,
2013-08-25 22:00:00,68.2,61.8,30.39,SSW,208,2.0,2.0,80,0.00,,,0.01,Wunderground v.1.15,2013-08-26 02:00:00,
2013-08-25 22:05:00,67.9,61.9,30.39,SSW,208,2.0,6.0,81,0.00,,,0.01,Wunderground v.1.15,2013-08-26 02:05:00,
2013-08-25 22:10:00,67.7,61.7,30.40,SSW,208,1.0,1.0,81,0.00,,,0.01,Wunderground v.1.15,2013-08-26 02:10:00,
2013-08-25 22:15:00,67.5,61.8,30.39,SSW,208,0.0,6.0,82,0.00,,,0.01,Wunderground v.1.15,2013-08-26 02:15:00,
2013-08-25 22:20:00,67.4,61.7,30.39,SSW,208,0.0,6.0,82,0.00,,,0.01,Wunderground v.1.15,2013-08-26 02:20:00,
2013-08-25 22:30:00,67.5,61.5,30.40,SSW,208,0.0,6.0,81,0.00,,,0.01,Wunderground v.1.15,2013-08-26 02:30:00,
2013-08-25 22:35:00,67.3,61.6,30.40,SSW,208,0.0,6.0,82,0.00,,,0.01,Wunderground v.1.15,2013-08-26 02:35:00,
2013-08-25 22:40:00,67.1,61.4,30.40,SSW,208,0.0,6.0,82,0.00,,,0.01,Wunderground v.1.15,2013-08-26 02:40:00,
2013-08-25 22:45:00,66.9,61.2,30.40,SSW,208,0.0,6.0,82,0.00,,,0.01,Wunderground v.1.15,2013-08-26 02:45:00,
2013-08-25 22:50:00,66.8,61.5,30.40,SSW,208,0.0,6.0,83,0.00,,,0.01,Wunderground v.1.15,2013-08-26 02:50:00,
2013-08-25 22:55:00,66.7,61.7,30.41,SSW,208,0.0,6.0,84,0.00,,,0.01,Wunderground v.1.15,2013-08-26 02:55:00,
2013-08-25 23:00:00,66.7,61.7,30.41,SSW,208,0.0,6.0,84,0.00,,,0.01,Wunderground v.1.15,2013-08-26 03:00:00,
2013-08-25 23:05:00,66.5,61.5,30.40,SSW,208,0.0,6.0,84,0.00,,,0.01,Wunderground v.1.15,2013-08-26 03:05:00,
2013-08-25 23:10:00,66.2,61.6,30.41,SSW,208,1.0,1.0,85,0.00,,,0.01,Wunderground v.1.15,2013-08-26 03:10:00,
2013-08-25 23:15:00,66.2,61.9,30.42,SSW,208,1.0,6.0,86,0.00,,,0.01,Wunderground v.1.15,2013-08-26 03:15:00,
2013-08-25 23:20:00,65.9,61.9,30.43,SSW,208,1.0,6.0,87,0.00,,,0.01,Wunderground v.1.15,2013-08-26 03:20:00,
2013-08-25 23:25:00,66.1,62.1,30.44,SSW,208,2.0,6.0,87,0.00,,,0.01,Wunderground v.1.15,2013-08-26 03:25:00,
2013-08-25 23:35:00,66.0,62.0,30.44,SSW,208,0.0,6.0,87,0.00,,,0.01,Wunderground v.1.15,2013-08-26 03:35:00,
2013-08-25 23:40:00,65.9,61.9,30.44,SSW,208,0.0,6.0,87,0.00,,,0.01,Wunderground v.1.15,2013-08-26 03:40:00,
2013-08-25 23:45:00,65.9,61.9,30.44,SSW,208,0.0,6.0,87,0.00,,,0.01,Wunderground v.1.15,2013-08-26 03:45:00,
2013-08-25 23:50:00,65.8,62.1,30.44,SSW,208,0.0,6.0,88,0.00,,,0.01,Wunderground v.1.15,2013-08-26 03:50:00,
2013-08-25 23:55:00,65.6,61.9,30.44,SSW,208,1.0,6.0,88,0.00,,,0.01,Wunderground v.1.15,2013-08-26 03:55:00,